When you browse on this site, cookies collect data to enhance your experience and personalize the content and advertising you see.
Visit our Privacy Policy to learn more. By continuing to use the site, you agree to this use of cookies and data.
  • în România
  • Lista ţărilor
  • Pe 7 zile
  • Temperatura apei
  • Hartă satelitară
  • Meteo pe hartă
  • Widget-uri
  • user-avatar
    Intrare

    Meteo pe oră la Al Hilla

    Astăzi, 18 Iulie, Joi

    Timp Temperatura Precipitaţii Vânt Presiune Umiditate
    00:00 +35°C° 0 mm 4 m/s 747 mmHg 19%
    01:00 +34°C° 0 mm 4 m/s 747 mmHg 20%
    02:00 +34°C° 0 mm 4 m/s 746 mmHg 21%
    03:00 +33°C° 0 mm 4 m/s 746 mmHg 22%
    04:00 +33°C° 0 mm 4 m/s 747 mmHg 23%
    05:00 +34°C° 0 mm 5 m/s 747 mmHg 23%
    06:00 +34°C° 0 mm 5 m/s 747 mmHg 23%
    07:00 +38°C° 0 mm 6 m/s 748 mmHg 20%
    08:00 +41°C° 0 mm 7 m/s 748 mmHg 16%
    09:00 +45°C° 0 mm 7 m/s 748 mmHg 13%
    10:00 +46°C° 0 mm 7 m/s 748 mmHg 11%
    11:00 +49°C° 0 mm 8 m/s 748 mmHg 10%
    12:00 +51°C° 0 mm 8 m/s 748 mmHg 9%
    13:00 +51°C° 0 mm 9 m/s 747 mmHg 8%
    14:00 +51°C° 0 mm 9 m/s 747 mmHg 8%
    15:00 +53°C° 0 mm 10 m/s 746 mmHg 8%
    16:00 +52°C° 0 mm 10 m/s 746 mmHg 8%
    17:00 +50°C° 0 mm 10 m/s 746 mmHg 9%
    18:00 +49°C° 0 mm 10 m/s 746 mmHg 10%
    19:00 +45°C° 0 mm 8 m/s 746 mmHg 12%
    20:00 +43°C° 0 mm 7 m/s 747 mmHg 14%
    21:00 +39°C° 0 mm 5 m/s 747 mmHg 16%
    22:00 +39°C° 0 mm 5 m/s 747 mmHg 17%
    23:00 +37°C° 0 mm 5 m/s 747 mmHg 17%

    Mâine, 19 Iulie, Vineri

    Timp Temperatura Precipitaţii Vânt Presiune Umiditate
    00:00 +36°C° 0 mm 5 m/s 747 mmHg 17%
    01:00 +35°C° 0 mm 5 m/s 747 mmHg 18%
    02:00 +35°C° 0 mm 5 m/s 747 mmHg 19%
    03:00 +34°C° 0 mm 5 m/s 747 mmHg 20%
    04:00 +33°C° 0 mm 5 m/s 747 mmHg 21%
    05:00 +33°C° 0 mm 5 m/s 748 mmHg 22%
    06:00 +33°C° 0 mm 5 m/s 748 mmHg 23%
    07:00 +35°C° 0 mm 6 m/s 748 mmHg 21%
    08:00 +39°C° 0 mm 7 m/s 748 mmHg 18%
    09:00 +41°C° 0 mm 7 m/s 748 mmHg 16%
    10:00 +44°C° 0 mm 8 m/s 748 mmHg 14%
    11:00 +46°C° 0 mm 8 m/s 748 mmHg 13%
    12:00 +48°C° 0 mm 8 m/s 748 mmHg 11%
    13:00 +49°C° 0 mm 8 m/s 747 mmHg 11%
    14:00 +49°C° 0 mm 9 m/s 747 mmHg 10%
    15:00 +49°C° 0 mm 9 m/s 746 mmHg 10%
    16:00 +48°C° 0 mm 9 m/s 746 mmHg 11%
    17:00 +47°C° 0 mm 9 m/s 746 mmHg 11%
    18:00 +46°C° 0 mm 8 m/s 746 mmHg 12%
    19:00 +44°C° 0 mm 8 m/s 746 mmHg 14%
    20:00 +41°C° 0 mm 7 m/s 747 mmHg 17%
    21:00 +39°C° 0 mm 6 m/s 747 mmHg 19%
    22:00 +38°C° 0 mm 6 m/s 747 mmHg 20%
    23:00 +38°C° 0 mm 7 m/s 747 mmHg 21%

    Poimâine, 20 Iulie, Sâmbătă

    Timp Temperatura Precipitaţii Vânt Presiune Umiditate
    00:00 +36°C° 0 mm 7 m/s 747 mmHg 22%
    01:00 +36°C° 0 mm 6 m/s 747 mmHg 23%
    02:00 +35°C° 0 mm 6 m/s 747 mmHg 24%
    03:00 +34°C° 0 mm 5 m/s 747 mmHg 25%
    04:00 +34°C° 0 mm 6 m/s 747 mmHg 28%
    05:00 +33°C° 0 mm 6 m/s 747 mmHg 30%
    06:00 +33°C° 0 mm 7 m/s 748 mmHg 32%
    07:00 +35°C° 0 mm 8 m/s 748 mmHg 30%
    08:00 +39°C° 0 mm 8 m/s 748 mmHg 27%
    09:00 +42°C° 0 mm 9 m/s 749 mmHg 25%
    10:00 +44°C° 0 mm 9 m/s 749 mmHg 21%
    11:00 +45°C° 0 mm 8 m/s 749 mmHg 18%
    12:00 +48°C° 0 mm 8 m/s 749 mmHg 14%
    13:00 +49°C° 0 mm 7 m/s 748 mmHg 13%
    14:00 +50°C° 0 mm 7 m/s 747 mmHg 11%
    15:00 +51°C° 0 mm 7 m/s 747 mmHg 10%
    16:00 +50°C° 0 mm 7 m/s 747 mmHg 10%
    17:00 +49°C° 0 mm 6 m/s 747 mmHg 10%
    18:00 +48°C° 0 mm 6 m/s 747 mmHg 11%
    19:00 +46°C° 0 mm 5 m/s 747 mmHg 13%
    20:00 +42°C° 0 mm 5 m/s 747 mmHg 15%
    21:00 +40°C° 0 mm 4 m/s 747 mmHg 17%
    22:00 +38°C° 0 mm 4 m/s 747 mmHg 18%
    23:00 +37°C° 0 mm 4 m/s 747 mmHg 19%

    21 Iulie, Duminică

    Timp Temperatura Precipitaţii Vânt Presiune Umiditate
    00:00 +37°C° 0 mm 4 m/s 747 mmHg 20%
    01:00 +36°C° 0 mm 4 m/s 747 mmHg 20%
    02:00 +36°C° 0 mm 5 m/s 747 mmHg 20%
    03:00 +36°C° 0 mm 5 m/s 747 mmHg 20%
    04:00 +36°C° 0 mm 5 m/s 747 mmHg 21%
    05:00 +35°C° 0 mm 6 m/s 747 mmHg 22%
    06:00 +35°C° 0 mm 6 m/s 748 mmHg 23%
    07:00 +39°C° 0 mm 6 m/s 748 mmHg 21%
    08:00 +43°C° 0 mm 7 m/s 748 mmHg 19%
    09:00 +45°C° 0 mm 7 m/s 748 mmHg 17%
    10:00 +47°C° 0 mm 7 m/s 748 mmHg 15%
    11:00 +50°C° 0 mm 7 m/s 748 mmHg 12%
    12:00 +52°C° 0 mm 7 m/s 748 mmHg 10%
    13:00 +53°C° 0 mm 7 m/s 747 mmHg 9%
    14:00 +55°C° 0 mm 7 m/s 747 mmHg 9%
    15:00 +55°C° 0 mm 8 m/s 746 mmHg 8%
    16:00 +54°C° 0 mm 8 m/s 746 mmHg 8%
    17:00 +52°C° 0 mm 8 m/s 746 mmHg 9%
    18:00 +51°C° 0 mm 8 m/s 746 mmHg 9%
    19:00 +49°C° 0 mm 7 m/s 746 mmHg 10%
    20:00 +46°C° 0 mm 7 m/s 746 mmHg 11%
    21:00 +44°C° 0 mm 6 m/s 747 mmHg 11%
    22:00 +42°C° 0 mm 6 m/s 747 mmHg 11%
    23:00 +41°C° 0 mm 6 m/s 747 mmHg 12%

    22 Iulie, Luni

    Timp Temperatura Precipitaţii Vânt Presiune Umiditate
    00:00 +41°C° 0 mm 6 m/s 747 mmHg 12%
    01:00 +40°C° 0 mm 6 m/s 746 mmHg 13%
    02:00 +39°C° 0 mm 6 m/s 746 mmHg 14%
    03:00 +39°C° 0 mm 6 m/s 746 mmHg 15%
    04:00 +38°C° 0 mm 6 m/s 746 mmHg 14%
    05:00 +37°C° 0 mm 5 m/s 746 mmHg 14%
    06:00 +37°C° 0 mm 5 m/s 746 mmHg 14%
    07:00 +41°C° 0 mm 6 m/s 746 mmHg 12%
    08:00 +45°C° 0 mm 8 m/s 747 mmHg 10%
    09:00 +49°C° 0 mm 9 m/s 747 mmHg 8%
    10:00 +51°C° 0 mm 9 m/s 747 mmHg 7%
    11:00 +54°C° 0 mm 9 m/s 746 mmHg 6%
    12:00 +56°C° 0 mm 9 m/s 746 mmHg 5%
    13:00 +56°C° 0 mm 9 m/s 745 mmHg 5%
    14:00 +56°C° 0 mm 9 m/s 745 mmHg 5%
    15:00 +58°C° 0 mm 9 m/s 744 mmHg 5%
    16:00 +56°C° 0 mm 9 m/s 744 mmHg 6%
    17:00 +55°C° 0 mm 9 m/s 744 mmHg 6%
    18:00 +54°C° 0 mm 9 m/s 744 mmHg 6%
    19:00 +51°C° 0 mm 9 m/s 744 mmHg 7%
    20:00 +49°C° 0 mm 9 m/s 744 mmHg 9%
    21:00 +47°C° 0 mm 9 m/s 745 mmHg 10%
    22:00 +45°C° 0 mm 8 m/s 745 mmHg 11%
    23:00 +44°C° 0 mm 8 m/s 745 mmHg 12%

    23 Iulie, Marţi

    Timp Temperatura Precipitaţii Vânt Presiune Umiditate
    00:00 +43°C° 0 mm 7 m/s 745 mmHg 13%
    01:00 +41°C° 0 mm 7 m/s 744 mmHg 13%
    02:00 +41°C° 0 mm 7 m/s 744 mmHg 13%
    03:00 +40°C° 0 mm 6 m/s 744 mmHg 13%
    04:00 +39°C° 0 mm 6 m/s 744 mmHg 13%
    05:00 +39°C° 0 mm 6 m/s 744 mmHg 14%
    06:00 +38°C° 0 mm 6 m/s 745 mmHg 15%
    07:00 +41°C° 0 mm 7 m/s 745 mmHg 12%
    08:00 +45°C° 0 mm 8 m/s 745 mmHg 9%
    09:00 +50°C° 0 mm 9 m/s 745 mmHg 7%
    10:00 +53°C° 0 mm 9 m/s 745 mmHg 6%
    11:00 +55°C° 0 mm 10 m/s 745 mmHg 5%
    12:00 +57°C° 0 mm 10 m/s 745 mmHg 4%
    13:00 +58°C° 0 mm 10 m/s 744 mmHg 4%
    14:00 +58°C° 0 mm 9 m/s 744 mmHg 4%
    15:00 +58°C° 0 mm 9 m/s 743 mmHg 4%
    16:00 +56°C° 0 mm 9 m/s 743 mmHg 4%
    17:00 +55°C° 0 mm 9 m/s 743 mmHg 5%
    18:00 +54°C° 0 mm 9 m/s 743 mmHg 5%
    19:00 +51°C° 0 mm 8 m/s 744 mmHg 6%
    20:00 +47°C° 0 mm 6 m/s 744 mmHg 7%
    21:00 +45°C° 0 mm 5 m/s 744 mmHg 8%
    22:00 +43°C° 0 mm 5 m/s 744 mmHg 9%
    23:00 +42°C° 0 mm 5 m/s 744 mmHg 9%
    Arată mai mult